Miscellaneous Local Product
Issued by NWS North Platte, NE

Home | Current Version | Previous Version | Text Only | Print | Product List | Glossary Off
Versions: 1 2 3 4 5 6 7 8 9 10 11 12 13 14 15 16 17 18 19 20 21 22 23 24 25 26 27 28 29 30 31 32 33 34 35 36 37 38 39 40 41 42 43 44 45 46 47 48 49 50

000
AXUS43 KLBF 231810
MISLBF


WESTERN AND NORTH CENTRAL NEBRASKA HOURLY WEATHER ROUNDUP
NATIONAL WEATHER SERVICE NORTH PLATTE NE
100 PM CDT TUE SEP 23 2014

***STATIONS NOT REPORTING VARIABLES SUCH AS SKY/WEATHER OR
PRESSURE ARE PROVIDED BY THE NEBRASKA DEPARTMENT OF
ROADS...RAWS...AND APRS NETWORKS...AND ARE NOT UNDER
NATIONAL WEATHER SERVICE QUALITY CONTROL***

...OBSERVATIONS IN AND NEAR THE EASTERN PANHANDLE OF NEBRASKA...

CITY           SKY/WX    TMP DP  RH WIND       PRES   REMARKS
PINE RIDGE     CLOUDY    70  54  56 NW7       29.96S
CHADRON        CLOUDY    70  53  54 NW12      29.97S
ALLIANCE       SUNNY     78  47  33 NW12      29.99F
SIDNEY         SUNNY     81  46  29 NW14G24   30.06F
WHITECLAY        N/A     70  52  51 NW7         N/A
RUSHVILLE        N/A     70  46  40 NW15        N/A
CRESCENT LAKE    N/A     78  49  35 W12         N/A
LISCO            N/A     80  43  26 W15         N/A
BIG SPRINGS      N/A     75  57  53 N3          N/A
$$

...OBSERVATIONS IN NORTH CENTRAL NEBRASKA...

CITY           SKY/WX    TMP DP  RH WIND       PRES   REMARKS
VALENTINE      PTSUNNY   72  58  61 S14       29.91F
THEDFORD       MOSUNNY   75  58  55 SW9       29.97F
AINSWORTH      MOSUNNY   68  57  68 S17G24    29.94F
O`NEILL        CLOUDY    64  58  82 S17G25    30.02F
ORD            CLOUDY    63  56  78 S16G22    30.02F
BROKEN BOW     CLOUDY    69  58  67 S16G24    30.00F
SPRINGVIEW       N/A     68  59  73 S10G17      N/A
ROSE             N/A     69  64  82 E16         N/A
NEWPORT          N/A     64  59  82 S12         N/A
COMSTOCK         N/A     69  63  81 S10         N/A
CHAMBERS         N/A     62  57  83 S13         N/A
$$

...OBSERVATIONS IN SOUTHWEST NEBRASKA AND FAR NORTHEAST COLORADO...

CITY           SKY/WX    TMP DP  RH WIND       PRES   REMARKS
WRAY           FAIR      82  52  36 W14G20    30.04F
HOLYOKE        FAIR      81  45  28 W16G24    30.03F
IMPERIAL       SUNNY     82  49  31 NW15      30.01F
OGALLALA       SUNNY     82  50  32 W9G17     29.99F
NORTH PLATTE   SUNNY     75  59  57 S9        29.99F
MCCOOK         SUNNY     74  61  63 S8        30.01F
LEXINGTON      SUNNY     70  59  68 S13G21    30.02F
PAXTON           N/A     72  58  61 W6          N/A
SUTHERLAND       N/A     80  54  39 SW3         N/A
BRADY            N/A     71  62  73 CALM        N/A
GOTHENBURG       N/A     66  55  67 S10         N/A
CALLAWAY         N/A     66  61  83 S15         N/A
$$

...SOME WEATHER OBSERVATIONS FROM AROUND THE REGION...

CITY           SKY/WX    TMP DP  RH WIND       PRES   REMARKS
DENVER         PTSUNNY   77  41  27 NW12G20   30.14F
LARAMIE        PTSUNNY   64  39  39 NW17      30.23S
CHEYENNE       PTSUNNY   70  42  36 NW14G21   30.17S
SCOTTSBLUFF    SUNNY     77  51  40 W12       30.02F
RAPID CITY     MOSUNNY   75  56  51 VRB5      29.94F
PIERRE         CLOUDY    64  56  75 SE17      29.91F
WINNER         CLOUDY    67  56  67 S21G28    29.93F
SIOUX FALLS    CLOUDY    59  56  89 SE9       30.11F
OMAHA          CLOUDY    64  57  78 SE7       30.17F
GRAND ISLAND   CLOUDY    66  55  67 S20G26    30.06F
KANSAS CITY    PTSUNNY   73  56  54 S15       30.21F
WICHITA        PTSUNNY   79  51  37 S22G31    30.14F
LIBERAL        MOSUNNY   82  59  44 SW24      30.07F
GOODLAND       SUNNY     79  57  46 E6        30.07S
$$



USA.gov is the U.S. government's official web portal to all federal, state and local government web resources and services.